Regional Weather Roundup
Issued by NWS Wakefield, VA

Home | Current Version | Previous Version | Graphics & Text | Print | Product List | Glossary On
Versions: 1 2 3 4 5 6 7 8 9 10 11 12 13 14 15 16 17 18 19 20 21 22 23 24 25 26 27
000
ASUS41 KAKQ 241310
RWRAKQ

REGIONAL WEATHER ROUNDUP
NATIONAL WEATHER SERVICE WAKEFIELD VA
900 AM EDT THU APR 24 2014

Note: "fair" indicates few or no clouds below 12,000 feet with no
significant weather and/or obstructions to visibility. * = Denotes
station may not report precipitation (e.g., rain,snow,etc.),
thunder or fog.

VAZ042-051-052>054-056-241400-
NORTHERN VIRGINIA

CITY           SKY/WX    TMP DP  RH WIND       PRES   REMARKS
WASH NATIONAL  MOSUNNY   50  23  34 N10G20    30.14R
DULLES         SUNNY     46  19  34 N13       30.14R
FORT BELVOIR   SUNNY     49  20  31 NW7       30.15R
QUANTICO       MOSUNNY   50  21  32 N13       30.16R
FREDERICKSBRG* SUNNY     50  23  34 NW9G17    30.14R
STAFFORD*      SUNNY     50  27  41 NW10G16   30.18R
WARRENTON      SUNNY     51  29  44 N10       30.15R
CULPEPER*      MOSUNNY   52  18  25 N9        30.16R
MANASSAS*      SUNNY     48  23  37 N9          N/A
LEESBURG*      SUNNY     46  27  46 N12G20    30.15R
WINCHESTER     SUNNY     45  19  36 NW7       30.15R
$$

VAZ048-049-060>072-079>083-241400-
CENTRAL AND SOUTH CENTRAL VIRGINIA...AND NORTH CENTRAL NORTH CAROLINA

CITY           SKY/WX    TMP DP  RH WIND       PRES   REMARKS
RICHMOND       MOSUNNY   52  26  36 N12       30.15R
CHESTERFIELD*  SUNNY     52  27  37 N10       30.15R
HANOVER        SUNNY     50  27  40 VRB7      30.16R
TAPPAHANNOCK*  SUNNY     50  22  32 NW6       30.14R
CHARLOTTSVILLE MOSUNNY   49  22  34 E3        30.14R
ORANGE*        MOSUNNY   46  27  46 N8        30.16R
LOUISA*        MOSUNNY   48  27  43 N7        30.13S
FARMVILLE*     SUNNY     50  32  50 N5        30.12R
SOUTH HILL*    SUNNY     54  32  43 N6        30.18S
ROANOKE RAPIDS SUNNY     54  36  50 NE7       30.14R
RALEIGH        MOSUNNY   53  31  42 E6        30.15R
$$

VAZ088>098-241400-
SOUTHEAST VIRGINIA

CITY           SKY/WX    TMP DP  RH WIND       PRES   REMARKS
NORFOLK        SUNNY     52  29  41 N13       30.11R
VIRGINIA BEACH SUNNY     53  29  39 N18       30.10R
NORFOLK NAVAL  MOSUNNY   54  28  36 N16       30.13R
WEST POINT*      N/A    N/A N/A N/A MISG        N/A
NEWPORT NEWS   SUNNY     55  28  35 N15       30.12R
LANGLEY AFB    SUNNY     52  29  41 NW12G20   30.12R
FORT EUSTIS    SUNNY     51  32  47 N10G17    30.11R
WILLIAMSBURG*  SUNNY     52  30  43 N12G17    30.13S
FRANKLIN*      SUNNY     54  28  37 N7        30.13R
WAKEFIELD      SUNNY     52  27  38 N8        30.13R
$$

VAZ020-022-025-037-045-241400-
WESTERN AND SOUTHWEST VIRGINIA

CITY           SKY/WX    TMP DP  RH WIND       PRES   REMARKS
STAUNTON*      MOSUNNY   42  31  67 CALM      30.16R
HOT SPRINGS VA CLOUDY    37  18  44 NW5       30.13R
LYNCHBURG      MOSUNNY   55  31  39 N6        30.14R
DANVILLE       SUNNY     52  34  50 CALM      30.13R
MARTINSVILLE     N/A     50  37  61 CALM      30.15S
ROANOKE        PTSUNNY   48  34  58 CALM      30.15R
BLACKSBURG     CLOUDY    48  37  66 CALM      30.14R
DUBLIN*        CLOUDY    47  34  61 S3        30.13R
MARION*        MOSUNNY   46  32  58 E6        30.14R
HILLSVILLE*    SUNNY     46  28  49 CALM      30.14R
RICHLANDS*     SUNNY     49  32  52 E6        30.08S
WISE*          PTSUNNY   52  30  43 CALM      30.10R
ABINGDON*      MOSUNNY   52  32  47 E6        30.09R
$$

MDZ021>025-VAZ099-100-241400-
SOUTHERN MARYLAND AND THE DELMARVA PENINSULA

CITY           SKY/WX    TMP DP  RH WIND       PRES   REMARKS
PATUXENT RIVER MOSUNNY   51  22  31 N13       30.11R
BAY BRIDGE APT SUNNY     48  23  37 NW10G20   30.11R
LEONARDTOWN    SUNNY     48  23  37 NW8G16    30.12R
DOVER          SUNNY     48  22  35 NW18      30.03R
GEORGETOWN     SUNNY     50  21  32 NW12G21   30.06R
EASTON         SUNNY     50  28  43 N14G22    30.13R
CAMBRIDGE      SUNNY     52  28  40 NW14G21   30.09R
SALISBURY      SUNNY     52  25  35 NW16G24   30.07R
OCEAN CITY     SUNNY     50  25  37 NW16G22   30.05S
WALLOPS ISLAND SUNNY     52  28  39 N14G21    30.07S
ACCOMACK*      SUNNY     52  30  43 NW15G21   30.09R
$$

NCZ012>017-030>032-241400-
EASTERN NORTH CAROLINA

CITY           SKY/WX    TMP DP  RH WIND       PRES   REMARKS
ELIZABETH CITY SUNNY     53  31  42 NW13      30.12R
AHOSKIE*       SUNNY     52  29  42 N8        30.14R
EDENTON*       SUNNY     52  35  52 N8        30.12S
CURRITUCK*     SUNNY     54  30  40 N8G16     30.12R
KILL DEVIL HLS SUNNY     53  36  53 N9        30.09S
MANTEO         SUNNY     52  36  53 N12       30.11R
CAPE HATTERAS  SUNNY     54  37  52 N8G17     30.10R
GOLDSBORO      SUNNY     54  33  45 NE10      30.13R
WASHINGTON     SUNNY     53  33  47 NE8       30.14R
GREENVILLE     SUNNY     52  32  46 NE10      30.15R
NEW BERN       SUNNY     55  36  48 NE7       30.14R
WILMINGTON     SUNNY     59  37  44 NE15      30.11R
$$

VAZ048-241400-
ELSEWHERE

CITY           SKY/WX    TMP DP  RH WIND       PRES   REMARKS
HARRISBURG PA  SUNNY     47  16  29 NW13G23   30.10R
BALTIMORE      MOSUNNY   48  22  35 NW14G22   30.11R
ANNAPOLIS      SUNNY     48  26  42 NW13      30.11R
ANDREWS AFB    SUNNY     49  22  34 NW15G22   30.12R
WILMINGTON DE  SUNNY     48  20  32 NW17G25   30.07R
PHILADELPHIA   SUNNY     48  13  24 NW22G30   30.04S
WILDWOOD NJ*   SUNNY     48  19  32 NW14G25   30.03S
ATLANTIC CITY  SUNNY     48  19  31 NW22G33   29.99S
HENDERSON NC   SUNNY     51  33  49 NE3       30.13S
GREENSBORO     MOSUNNY   53  33  46 VRB5      30.12R
ROCKY MOUNT    SUNNY     53  33  46 NE9       30.14R
FAYETTEVILLE   SUNNY     56  37  49 E8        30.13R
CHARLOTTE      MOSUNNY   57  33  40 E9        30.14R
$$

VAZ100-241400-
MARINE

STATION/POSITION TIME  TEMP    WIND        PRES    WAVE   SWELL
                       AIR SEA DIR/SP/G            HT/PER HT/PER
                 (UTC) (F)     (DEG/KT/KT) (MB)    (FT/S) (FT/S)
44066 TX TWR #4  1300   44 45  310/ 23/ 29 1011.4R   8/ 7
CAPE MAY NJ      1300   49 57  330/ 13/ 22 1016.6S
LEWES DE         1300   47 50  330/ 23/ 28 1016.4S
15NM E FENWICK I 1300   47 46              1016.6R   4/ 5
OCEAN-CITY-INLET 1300   48 47  340/ 13/ 20 1017.2R
WACHAPREAGUE VA  1300   51 54  350/  7/ 18 1018.3R
THOMAS POINT MD  1300   47 53  330/ 13/ 18 1020.0R
GOOSES REEF MD   1300   48     350/ 17/ 19   N/A
COVE POINT MD    1300   47     350/ 19/ 22 1019.2R
SOLOMONS ISLAND  1300      54                N/A
BISHOPS HEAD MD  1300   49 51  330/ 16/ 21 1018.7R
PINEY POINT MD   1300          340/ 16/ 18   N/A
POTOMAC MD       1300   49     330/ 14/ 17 1018.8R
CAMBRIDGE MD     1300   48 56  300/ 14/ 18 1018.6R
LEWISETTA VA     1300   49 56  340/ 12/ 16 1019.7R
RAPPAHANNOCK LGT 1300          320/ 21/ 24 1019.4R
STINGRAY PT      1300   49     330/ 14/ 17 1019.4S
YORK RVR RNG VA  1300   49     340/ 16/ 19 1019.0S
YORKTOWN VA      1300   49 56  330/ 13/ 15 1019.7R
JAMESTOWN VA     1300   50     350/ 12/ 17   N/A
DOMINION TERM VA 1300   51     330/ 10/ 14 1019.7R
KIPTOPEKE VA     1300      55  340/ 19/ 21   N/A
CHES BAY BRIDGE  1300   50 53  320/ 17/ 20 1019.6R
CAPE HENRY VA    1300   49     330/ 19/ 22   N/A
CHESAPEAKE LGHT  1200   49     340/ 18/ 19 1018.8R
WILLOUBY STN VA  1300   49     350/ 18/ 19 1018.7S
S CRANEY ISL VA  1300          320/ 11/ 15 1019.8R
CAPE HENRY BUOY  1300      47                N/A     3/ 4
1ST LANDING BUOY 1300      49                N/A     2/ 4   2/15
64NM E OF VA BCH 1300   49 49  330/ 17/ 19 1018.1R   6/ 7   2/14
DUCK PIER NC     1300   50 52  350/ 11/ 13 1018.4R
44100 DUCK FRF   1300      49                N/A     4/ 5
44056 DUCK FRF   1300      52                N/A     3/ 5
OREGON INLET NC  1300   52 54  350/ 13/ 17 1019.1R
HATTERAS NC      1300   53 61   10/ 16/ 18 1019.3R
DIAMOND SHLS NC  1300   54 73  360/ 17/ 21 1018.5R   6/ 7   2/ 9
CAPE LOOKOUT NC  1200   56      20/ 16/ 19 1018.7R
FRYING PAN SHLS  1300   65 68   50/ 17/ 19 1017.8R   4/ 5   2/ 8
$$



USA.gov is the U.S. government's official web portal to all federal, state and local government web resources and services.